| time (UTC) | temp F | wind direction | speed MPH | gust MPH | rain 1hr in | rain 24hr in | rain mn in | humidity % | barometer mb |
| 20260504234526 | 81 | 88 | 4.0 | 11.0 | 0.00 | 0.00 | 0.00 | 26 | 997.7 |
| 20260504234004 | 82 | 93 | 2.0 | 4.0 | 0.00 | 0.00 | 0.00 | 24 | 997.8 |
| 20260504233505 | 82 | 66 | 2.0 | 5.0 | 0.00 | 0.00 | 0.00 | 23 | 997.9 |
| 20260504233004 | 82 | 244 | 2.0 | 5.0 | 0.00 | 0.00 | 0.00 | 24 | 997.9 |
| 20260504232505 | 82 | 201 | 3.0 | 5.0 | 0.00 | 0.00 | 0.00 | 24 | 997.9 |
| 20260504232004 | 82 | 211 | 0.0 | 2.0 | 0.00 | 0.00 | 0.00 | 22 | 997.9 |
| 20260504231505 | 82 | 206 | 0.0 | 2.0 | 0.00 | 0.00 | 0.00 | 22 | 997.9 |
| 20260504231004 | 82 | 208 | 0.0 | 4.0 | 0.00 | 0.00 | 0.00 | 23 | 997.9 |
| 20260504230505 | 82 | 213 | 1.0 | 5.0 | 0.00 | 0.00 | 0.00 | 23 | 997.8 |
| 20260504230025 | 82 | 258 | 3.0 | 6.0 | 0.00 | 0.00 | 0.00 | 22 | 997.9 |
| 20260504225505 | 82 | 257 | 4.0 | 6.0 | 0.00 | 0.00 | 0.00 | 22 | 998.0 |
| 20260504225004 | 82 | 275 | 2.0 | 8.0 | 0.00 | 0.00 | 0.00 | 24 | 998.0 |
| 20260504224505 | 81 | 267 | 5.0 | 8.0 | 0.00 | 0.00 | 0.00 | 22 | 998.1 |
| 20260504224005 | 81 | 216 | 1.0 | 9.0 | 0.00 | 0.00 | 0.00 | 23 | 998.1 |
| 20260504223505 | 81 | 248 | 5.0 | 11.0 | 0.00 | 0.00 | 0.00 | 22 | 998.0 |
| 20260504223005 | 81 | 261 | 3.0 | 13.0 | 0.00 | 0.00 | 0.00 | 24 | 998.1 |
| 20260504222505 | 81 | 308 | 8.0 | 16.0 | 0.00 | 0.00 | 0.00 | 24 | 997.9 |
| 20260504222005 | 81 | 266 | 9.0 | 16.0 | 0.00 | 0.00 | 0.00 | 23 | 998.1 |
| 20260504221505 | 81 | 270 | 7.0 | 17.0 | 0.00 | 0.00 | 0.00 | 23 | 998.1 |
| 20260504221005 | 80 | 316 | 3.0 | 17.0 | 0.00 | 0.00 | 0.00 | 22 | 998.1 |
| 20260504220504 | 80 | 267 | 3.0 | 18.0 | 0.00 | 0.00 | 0.00 | 22 | 998.1 |
| 20260504220026 | 80 | 279 | 12.0 | 18.0 | 0.00 | 0.00 | 0.00 | 22 | 998.3 |
| 20260504215504 | 80 | 256 | 7.0 | 18.0 | 0.00 | 0.00 | 0.00 | 22 | 998.4 |
| 20260504215005 | 80 | 259 | 7.0 | 11.0 | 0.00 | 0.00 | 0.00 | 22 | 998.5 |
| 20260504214504 | 80 | 349 | 1.0 | 9.0 | 0.00 | 0.00 | 0.00 | 22 | 998.4 |
| 20260504214005 | 80 | 221 | 4.0 | 10.0 | 0.00 | 0.00 | 0.00 | 24 | 998.8 |
| 20260504213505 | 79 | 167 | 5.0 | 14.0 | 0.00 | 0.00 | 0.00 | 22 | 998.8 |
| 20260504213004 | 79 | 157 | 5.0 | 16.0 | 0.00 | 0.00 | 0.00 | 25 | 998.8 |
| 20260504212505 | 79 | 138 | 8.0 | 18.0 | 0.00 | 0.00 | 0.00 | 26 | 998.4 |
| 20260504212005 | 80 | 146 | 5.0 | 25.0 | 0.00 | 0.00 | 0.00 | 25 | 998.5 |
| 20260504211505 | 80 | 129 | 7.0 | 25.0 | 0.00 | 0.00 | 0.00 | 25 | 998.5 |
| 20260504211005 | 81 | 132 | 6.0 | 10.0 | 0.00 | 0.00 | 0.00 | 24 | 998.6 |
| 20260504210504 | 81 | 118 | 4.0 | 17.0 | 0.00 | 0.00 | 0.00 | 22 | 998.6 |
| 20260504205504 | 82 | 142 | 7.0 | 18.0 | 0.00 | 0.00 | 0.00 | 22 | 998.4 |
| 20260504205026 | 82 | 144 | 3.0 | 6.0 | 0.00 | 0.00 | 0.00 | 23 | 998.4 |
| 20260504204505 | 83 | 240 | 1.0 | 3.0 | 0.00 | 0.00 | 0.00 | 20 | 998.5 |
| 20260504204005 | 83 | 245 | 0.0 | 6.0 | 0.00 | 0.00 | 0.00 | 19 | 998.6 |
| 20260504203504 | 83 | 245 | 1.0 | 8.0 | 0.00 | 0.00 | 0.00 | 20 | 998.5 |
| 20260504203005 | 84 | 301 | 4.0 | 17.0 | 0.00 | 0.00 | 0.00 | 18 | 998.6 |
| 20260504202504 | 84 | 249 | 10.0 | 17.0 | 0.00 | 0.00 | 0.00 | 19 | 998.7 |
| 20260504202005 | 84 | 292 | 3.0 | 12.0 | 0.00 | 0.00 | 0.00 | 20 | 998.7 |
| 20260504201547 | 84 | 307 | 6.0 | 12.0 | 0.00 | 0.00 | 0.00 | 20 | 998.8 |
| 20260504201005 | 83 | 306 | 7.0 | 10.0 | 0.00 | 0.00 | 0.00 | 21 | 998.8 |
| 20260504200505 | 83 | 241 | 5.0 | 9.0 | 0.00 | 0.00 | 0.00 | 20 | 999.0 |
| 20260504200005 | 82 | 245 | 4.0 | 9.0 | 0.00 | 0.00 | 0.00 | 21 | 999.0 |
| 20260504195504 | 82 | 276 | 4.0 | 10.0 | 0.00 | 0.00 | 0.00 | 22 | 999.2 |
| 20260504195005 | 81 | 231 | 5.0 | 10.0 | 0.00 | 0.00 | 0.00 | 21 | 999.3 |
| 20260504194505 | 81 | 171 | 3.0 | 8.0 | 0.00 | 0.00 | 0.00 | 24 | 999.1 |
| 20260504194005 | 81 | 89 | 2.0 | 8.0 | 0.00 | 0.00 | 0.00 | 25 | 999.3 |
| 20260504193505 | 81 | 28 | 2.0 | 6.0 | 0.00 | 0.00 | 0.00 | 24 | 999.3 |
| 20260504193004 | 81 | 81 | 4.0 | 8.0 | 0.00 | 0.00 | 0.00 | 24 | 999.3 |
| 20260504192504 | 81 | 82 | 4.0 | 9.0 | 0.00 | 0.00 | 0.00 | 24 | 999.3 |
| 20260504192004 | 81 | 50 | 4.0 | 13.0 | 0.00 | 0.00 | 0.00 | 23 | 999.5 |
| 20260504191505 | 81 | 57 | 3.0 | 13.0 | 0.00 | 0.00 | 0.00 | 25 | 999.4 |
| 20260504191004 | 81 | 50 | 9.0 | 13.0 | 0.00 | 0.00 | 0.00 | 24 | 999.3 |
| 20260504190526 | 81 | 37 | 7.0 | 10.0 | 0.00 | 0.00 | 0.00 | 24 | 999.2 |
| 20260504190005 | 81 | 46 | 7.0 | 11.0 | 0.00 | 0.00 | 0.00 | 24 | 999.3 |
| 20260504185546 | 81 | 32 | 5.0 | 13.0 | 0.00 | 0.00 | 0.00 | 24 | 999.4 |
| 20260504185005 | 81 | 44 | 7.0 | 16.0 | 0.00 | 0.00 | 0.00 | 24 | 999.5 |
| 20260504184504 | 81 | 43 | 8.0 | 16.0 | 0.00 | 0.00 | 0.00 | 24 | 999.6 |
| 20260504184005 | 82 | 47 | 8.0 | 12.0 | 0.00 | 0.00 | 0.00 | 24 | 999.5 |
| 20260504183504 | 82 | 33 | 5.0 | 10.0 | 0.00 | 0.00 | 0.00 | 24 | 999.6 |
| 20260504183005 | 82 | 31 | 3.0 | 10.0 | 0.00 | 0.00 | 0.00 | 23 | 999.6 |
| 20260504182504 | 82 | 38 | 5.0 | 11.0 | 0.00 | 0.00 | 0.00 | 22 | 999.7 |
| 20260504182005 | 82 | 67 | 4.0 | 12.0 | 0.00 | 0.00 | 0.00 | 21 | 999.8 |
| 20260504181525 | 82 | 46 | 8.0 | 12.0 | 0.00 | 0.00 | 0.00 | 22 | 999.8 |
| 20260504181005 | 83 | 42 | 6.0 | 13.0 | 0.00 | 0.00 | 0.00 | 22 | 999.9 |
| 20260504180504 | 83 | 15 | 6.0 | 13.0 | 0.00 | 0.00 | 0.00 | 23 | 1000.1 |
| 20260504180005 | 83 | 22 | 6.0 | 15.0 | 0.00 | 0.00 | 0.00 | 22 | 1000.1 |
| 20260504175525 | 83 | 49 | 9.0 | 15.0 | 0.00 | 0.00 | 0.00 | 23 | 1000.1 |
| 20260504175005 | 83 | 33 | 5.0 | 11.0 | 0.00 | 0.00 | 0.00 | 23 | 1000.3 |
| 20260504174504 | 83 | 319 | 7.0 | 11.0 | 0.00 | 0.00 | 0.00 | 25 | 1000.3 |
| 20260504174005 | 82 | 29 | 3.0 | 10.0 | 0.00 | 0.00 | 0.00 | 26 | 1000.4 |
| 20260504173505 | 82 | 53 | 3.0 | 10.0 | 0.00 | 0.00 | 0.00 | 27 | 1000.5 |
| 20260504173004 | 81 | 37 | 5.0 | 10.0 | 0.00 | 0.00 | 0.00 | 28 | 1000.5 |
| 20260504172526 | 81 | 31 | 7.0 | 11.0 | 0.00 | 0.00 | 0.00 | 29 | 1000.6 |
| 20260504172004 | 81 | 41 | 4.0 | 12.0 | 0.00 | 0.00 | 0.00 | 28 | 1000.7 |
| 20260504171505 | 81 | 40 | 6.0 | 12.0 | 0.00 | 0.00 | 0.00 | 28 | 1000.7 |
| 20260504171004 | 80 | 51 | 3.0 | 11.0 | 0.00 | 0.00 | 0.00 | 29 | 1000.8 |
| 20260504170505 | 80 | 35 | 7.0 | 12.0 | 0.00 | 0.00 | 0.00 | 29 | 1000.8 |
| 20260504151005 | 75 | 301 | 5.0 | 7.0 | 0.00 | 0.00 | 0.00 | 38 | 1001.2 |
| 20260504150505 | 74 | 309 | 5.0 | 7.0 | 0.00 | 0.00 | 0.00 | 40 | 1001.4 |
| 20260504140505 | 62 | 300 | 4.0 | 9.0 | 0.00 | 0.00 | 0.00 | 56 | 1001.9 |
| 20260504130505 | 51 | 328 | 4.0 | 7.0 | 0.00 | 0.00 | 0.00 | 71 | 1001.8 |
| 20260504110505 | 44 | 336 | 2.0 | 6.0 | 0.00 | 0.00 | 0.00 | 75 | 1001.3 |
| 20260504100504 | 45 | 331 | 2.0 | 6.0 | 0.00 | 0.00 | 0.00 | 73 | 1001.9 |
| 20260504082004 | 50 | 320 | 4.0 | 6.0 | 0.00 | 0.00 | 0.00 | 67 | 1002.1 |
| 20260504081504 | 50 | 323 | 5.0 | 6.0 | 0.00 | 0.00 | 0.00 | 67 | 1002.2 |
| 20260504081004 | 50 | 295 | 3.0 | 4.0 | 0.00 | 0.00 | 0.00 | 66 | 1002.2 |
| 20260504080504 | 51 | 293 | 1.0 | 4.0 | 0.00 | 0.00 | 0.00 | 66 | 1002.4 |
| 20260504050504 | 61 | 50 | 6.0 | 11.0 | 0.00 | 0.00 | 0.00 | 48 | 1003.3 |
| 20260504050004 | 61 | 62 | 5.0 | 11.0 | 0.00 | 0.00 | 0.00 | 47 | 1003.2 |
| 20260504045504 | 61 | 55 | 5.0 | 11.0 | 0.00 | 0.00 | 0.00 | 47 | 1003.2 |
| 20260504045004 | 61 | 60 | 6.0 | 13.0 | 0.00 | 0.00 | 0.00 | 47 | 1003.3 |
| 20260504044525 | 61 | 51 | 5.0 | 13.0 | 0.00 | 0.00 | 0.00 | 47 | 1003.3 |
| 20260504044005 | 61 | 57 | 6.0 | 12.0 | 0.00 | 0.00 | 0.00 | 47 | 1003.3 |
| 20260504043504 | 61 | 62 | 5.0 | 12.0 | 0.00 | 0.00 | 0.00 | 46 | 1003.5 |
| 20260504043005 | 61 | 65 | 6.0 | 13.0 | 0.00 | 0.00 | 0.00 | 46 | 1003.5 |
| 20260504042504 | 62 | 67 | 7.0 | 13.0 | 0.00 | 0.00 | 0.00 | 45 | 1003.6 |
| 20260504042004 | 62 | 71 | 6.0 | 14.0 | 0.00 | 0.00 | 0.00 | 45 | 1003.6 |
| 20260504041504 | 62 | 59 | 6.0 | 14.0 | 0.00 | 0.00 | 0.00 | 44 | 1003.7 |
| 20260504041025 | 62 | 61 | 6.0 | 12.0 | 0.00 | 0.00 | 0.00 | 43 | 1003.8 |
| 20260504040505 | 63 | 61 | 6.0 | 12.0 | 0.00 | 0.00 | 0.00 | 43 | 1003.8 |
| 20260504040025 | 63 | 65 | 6.0 | 13.0 | 0.00 | 0.00 | 0.00 | 43 | 1003.8 |
| 20260504035525 | 63 | 58 | 7.0 | 13.0 | 0.00 | 0.00 | 0.00 | 42 | 1003.9 |
| 20260504035026 | 64 | 61 | 7.0 | 14.0 | 0.00 | 0.00 | 0.00 | 42 | 1003.8 |
| 20260504034504 | 64 | 58 | 7.0 | 14.0 | 0.00 | 0.00 | 0.00 | 42 | 1003.9 |
| 20260504034005 | 64 | 62 | 7.0 | 11.0 | 0.00 | 0.00 | 0.00 | 41 | 1003.9 |
| 20260504033504 | 64 | 59 | 6.0 | 14.0 | 0.00 | 0.00 | 0.00 | 41 | 1003.8 |
| 20260504033025 | 65 | 68 | 7.0 | 18.0 | 0.00 | 0.00 | 0.00 | 40 | 1004.1 |
| 20260504032504 | 66 | 64 | 8.0 | 18.0 | 0.00 | 0.00 | 0.00 | 39 | 1004.0 |
| 20260504032004 | 66 | 58 | 8.0 | 13.0 | 0.00 | 0.00 | 0.00 | 38 | 1004.0 |
| 20260504031504 | 66 | 64 | 6.0 | 13.0 | 0.00 | 0.00 | 0.00 | 38 | 1003.9 |
| 20260504031004 | 67 | 59 | 7.0 | 12.0 | 0.00 | 0.00 | 0.00 | 37 | 1004.0 |
| 20260504030504 | 67 | 63 | 6.0 | 11.0 | 0.00 | 0.00 | 0.00 | 36 | 1003.9 |
| 20260504030004 | 67 | 55 | 5.0 | 10.0 | 0.00 | 0.00 | 0.00 | 36 | 1004.0 |
| 20260504025504 | 68 | 63 | 6.0 | 12.0 | 0.00 | 0.00 | 0.00 | 35 | 1003.8 |
| 20260504025025 | 69 | 60 | 6.0 | 12.0 | 0.00 | 0.00 | 0.00 | 34 | 1003.8 |
| 20260504024504 | 69 | 67 | 6.0 | 14.0 | 0.00 | 0.00 | 0.00 | 34 | 1003.9 |
| 20260504024004 | 70 | 57 | 8.0 | 14.0 | 0.00 | 0.00 | 0.00 | 33 | 1003.8 |
| 20260504023504 | 70 | 47 | 8.0 | 13.0 | 0.00 | 0.00 | 0.00 | 32 | 1003.9 |
| 20260504023004 | 71 | 60 | 8.0 | 14.0 | 0.00 | 0.00 | 0.00 | 31 | 1003.9 |
| 20260504022504 | 72 | 53 | 8.0 | 14.0 | 0.00 | 0.00 | 0.00 | 30 | 1003.9 |
| 20260504022004 | 72 | 49 | 6.0 | 12.0 | 0.00 | 0.00 | 0.00 | 29 | 1003.9 |
| 20260504021504 | 73 | 50 | 7.0 | 12.0 | 0.00 | 0.00 | 0.00 | 28 | 1003.9 |
| 20260504021004 | 74 | 54 | 5.0 | 7.0 | 0.00 | 0.00 | 0.00 | 27 | 1003.9 |
| 20260504020504 | 74 | 53 | 2.0 | 6.0 | 0.00 | 0.00 | 0.00 | 27 | 1003.9 |
| 20260504020025 | 75 | 55 | 3.0 | 7.0 | 0.00 | 0.00 | 0.00 | 26 | 1003.9 |
| 20260504015504 | 75 | 51 | 4.0 | 8.0 | 0.00 | 0.00 | 0.00 | 26 | 1003.7 |
| 20260504015004 | 75 | 55 | 4.0 | 9.0 | 0.00 | 0.00 | 0.00 | 25 | 1003.7 |
| 20260504014504 | 76 | 58 | 5.0 | 9.0 | 0.00 | 0.00 | 0.00 | 26 | 1003.7 |
| 20260504014004 | 76 | 52 | 5.0 | 9.0 | 0.00 | 0.00 | 0.00 | 25 | 1003.7 |
| 20260504013504 | 76 | 49 | 5.0 | 9.0 | 0.00 | 0.00 | 0.00 | 25 | 1003.7 |
| 20260504013004 | 77 | 53 | 4.0 | 10.0 | 0.00 | 0.00 | 0.00 | 25 | 1003.6 |
| 20260504012504 | 77 | 49 | 6.0 | 12.0 | 0.00 | 0.00 | 0.00 | 25 | 1003.8 |
| 20260504012004 | 77 | 45 | 8.0 | 12.0 | 0.00 | 0.00 | 0.00 | 25 | 1003.6 |
| 20260504011504 | 78 | 47 | 5.0 | 11.0 | 0.00 | 0.00 | 0.00 | 25 | 1003.8 |
| 20260504011004 | 78 | 43 | 5.0 | 11.0 | 0.00 | 0.00 | 0.00 | 25 | 1003.7 |
| 20260504010504 | 78 | 44 | 7.0 | 11.0 | 0.00 | 0.00 | 0.00 | 24 | 1003.8 |
| 20260504010004 | 78 | 47 | 6.0 | 14.0 | 0.00 | 0.00 | 0.00 | 24 | 1003.9 |
| 20260504005504 | 79 | 52 | 7.0 | 14.0 | 0.00 | 0.00 | 0.00 | 24 | 1003.8 |
| 20260504005004 | 79 | 48 | 6.0 | 10.0 | 0.00 | 0.00 | 0.00 | 24 | 1003.9 |
| 20260504004504 | 79 | 43 | 8.0 | 10.0 | 0.00 | 0.00 | 0.00 | 23 | 1003.8 |
| 20260504004004 | 79 | 36 | 6.0 | 10.0 | 0.00 | 0.00 | 0.00 | 23 | 1004.0 |
| 20260504003503 | 79 | 5 | 3.0 | 6.0 | 0.00 | 0.00 | 0.00 | 22 | 1003.9 |
| 20260504003004 | 80 | 353 | 2.0 | 6.0 | 0.00 | 0.00 | 0.00 | 21 | 1003.9 |
| 20260504002504 | 80 | 358 | 3.0 | 9.0 | 0.00 | 0.00 | 0.00 | 21 | 1003.9 |
| 20260504002004 | 80 | 22 | 4.0 | 9.0 | 0.00 | 0.00 | 0.00 | 21 | 1004.1 |
| 20260504001525 | 80 | 14 | 2.0 | 8.0 | 0.00 | 0.00 | 0.00 | 21 | 1004.0 |
| 20260504001004 | 80 | 355 | 3.0 | 7.0 | 0.00 | 0.00 | 0.00 | 20 | 1004.1 |
| 20260504000504 | 80 | 329 | 3.0 | 8.0 | 0.00 | 0.00 | 0.00 | 20 | 1004.0 |
| 20260504000004 | 81 | 327 | 3.0 | 10.0 | 0.00 | 0.00 | 0.00 | 19 | 1004.2 |
| 20260503235504 | 81 | 324 | 3.0 | 10.0 | 0.00 | 0.00 | 0.00 | 19 | 1004.1 |
| 20260503235004 | 81 | 333 | 4.0 | 11.0 | 0.00 | 0.00 | 0.00 | 18 | 1004.1 |